Regional Weather Roundup
Issued by NWS

Home | Current Version | Previous Version | Text Only | Print | Product List | Glossary On
Versions: 1 2 3 4 5 6 7 8 9 10 11 12 13 14 15 16 17 18 19 20 21 22 23 24 25 26 27 28 29 30 31 32 33 34 35 36 37 38 39 40 41 42 43 44 45 46 47 48 49 50
000
ASUS42 KKEY 211810
RWRKEY

FLORIDA REGIONAL WEATHER ROUNDUP FOR THE FLORIDA KEYS
NATIONAL WEATHER SERVICE KEY WEST FLORIDA
200 PM EDT TUE OCT 21 2014

...SOUTH FLORIDA AND THE KEYS...

CITY           SKY/WX    TMP DP  RH WIND       PRES   REMARKS
FORT MYERS     CLOUDY    80  71  74 SW10      29.93F
SW REGIONAL AP CLOUDY    78  70  76 SW17      29.94F
NAPLES         CLOUDY    78  70  76 S10       29.95F
MIAMI          LGT RAIN  78  74  87 SW8       29.95F
WEST KENDALL   LGT RAIN  78  75  90 SW8       29.95F
HOMESTEAD      LGT RAIN  75  73  94 SW7       29.95F
MARATHON       LGT RAIN  74  74 100 NW3       29.96F FOG
BOCA CHICA NAS LGT RAIN  73  71  93 E8        29.97F
KEY WEST INTL  RAIN      73  73 100 E7        29.96F FOG

...INTERNATIONAL WEATHER...

CITY           SKY/WX    TMP DP  RH WIND       PRES   REMARKS
NASSAU BAHAMAS PTSUNNY   86  77  74 SW7       29.94F HX  97
CANCUN MEXICO  RAIN      77  75  94 SE15G30   29.82F
COZUMEL MEXICO RAIN      70  70 100 SE5       29.83F

ADJACENT COASTAL WATERS...

STATION/POSITION TIME  SKY/WX   TEMP    WIND        PRES    WAVE
                                AIR SEA DIR/SP/G            HT/PER
                 (UTC)          (F)     (DEG/KT/KT) (MB)    (FT/S)
PULASKI SHOAL LI 1700            80     230/  7/  8 1014.6F
SAND KEY         1739            74      60/  8/ 10 1014.3F
SOMBRERO KEY     1800            75     330/ 10/ 10 1015.3F
LONG KEY         1654            76 80  240/  6/  7 1015.8F
MOLASSES REEF    1800            77 83  250/  6/  7 1014.4F
FOWEY ROCKS      1800            79 82  190/ 16/ 18 1014.2F
Buoy 42080       NOT AVBL

$$



USA.gov is the U.S. government's official web portal to all federal, state and local government web resources and services.